| time (UTC) | temp F | wind direction | speed MPH | gust MPH | rain 1hr in | rain 24hr in | rain mn in | humidity % | barometer mb |
| 20260903091600 | 55 | 195 | 14.0 | 22.0 | 0.01 | 0.12 | 0.01 | 63 | 1008.0 |
| 20260903090104 | 54 | 192 | 12.0 | 19.0 | 0.00 | 0.11 | 0.00 | 67 | 1007.9 |
| 20260903084555 | 53 | 198 | 10.0 | 16.0 | 0.00 | 0.11 | 0.00 | 70 | 1008.1 |
| 20260903083100 | 54 | 191 | 14.0 | 20.0 | 0.00 | 0.11 | 0.00 | 70 | 1008.0 |
| 20260903081558 | 53 | 210 | 13.0 | 17.0 | 0.00 | 0.11 | 0.00 | 71 | 1008.0 |
| 20260903080051 | 51 | 226 | 6.0 | 11.0 | 0.00 | 0.11 | 0.00 | 77 | 1008.2 |
| 20260903074553 | 51 | 230 | 9.0 | 16.0 | 0.00 | 0.11 | 0.00 | 78 | 1008.1 |
| 20260903073102 | 52 | 225 | 13.0 | 19.0 | 0.00 | 0.11 | 0.00 | 79 | 1008.1 |
| 20260903071559 | 51 | 209 | 13.0 | 19.0 | 0.00 | 0.11 | 0.00 | 83 | 1008.1 |
| 20260903070042 | 51 | 211 | 13.0 | 16.0 | 0.00 | 0.11 | 0.00 | 84 | 1008.3 |
| 20260903064539 | 51 | 216 | 14.0 | 19.0 | 0.00 | 0.11 | 0.00 | 84 | 1008.2 |
| 20260903063045 | 51 | 195 | 13.0 | 18.0 | 0.00 | 0.11 | 0.00 | 85 | 1008.2 |
| 20260903061537 | 51 | 203 | 15.0 | 22.0 | 0.00 | 0.11 | 0.00 | 87 | 1008.2 |
| 20260903060105 | 50 | 218 | 16.0 | 24.0 | 0.00 | 0.11 | 0.00 | 88 | 1008.1 |
| 20260903054533 | 50 | 224 | 19.0 | 27.0 | 0.00 | 0.11 | 0.11 | 89 | 1007.9 |
| 20260903053028 | 50 | 211 | 16.0 | 25.0 | 0.00 | 0.11 | 0.11 | 88 | 1008.2 |
| 20260903051526 | 50 | 201 | 19.0 | 28.0 | 0.00 | 0.11 | 0.11 | 86 | 1008.3 |
| 20260903050024 | 52 | 204 | 21.0 | 28.0 | 0.00 | 0.11 | 0.11 | 78 | 1008.4 |
| 20260903044523 | 51 | 205 | 16.0 | 22.0 | 0.00 | 0.11 | 0.11 | 77 | 1008.3 |
| 20260903043025 | 52 | 187 | 16.0 | 25.0 | 0.00 | 0.11 | 0.11 | 74 | 1007.9 |
| 20260903041520 | 52 | 202 | 18.0 | 23.0 | 0.00 | 0.11 | 0.11 | 74 | 1008.1 |
| 20260903040022 | 52 | 206 | 17.0 | 21.0 | 0.00 | 0.11 | 0.11 | 74 | 1008.2 |
| 20260903034519 | 52 | 189 | 12.0 | 21.0 | 0.00 | 0.11 | 0.11 | 74 | 1008.4 |
| 20260903033018 | 51 | 227 | 8.0 | 15.0 | 0.01 | 0.11 | 0.11 | 78 | 1008.1 |
| 20260903031526 | 51 | 196 | 12.0 | 20.0 | 0.01 | 0.11 | 0.11 | 78 | 1008.1 |
| 20260903030016 | 51 | 190 | 13.0 | 23.0 | 0.01 | 0.11 | 0.11 | 78 | 1008.0 |
| 20260903024513 | 52 | 217 | 17.0 | 31.0 | 0.01 | 0.11 | 0.11 | 80 | 1008.2 |
| 20260903023012 | 52 | 183 | 20.0 | 26.0 | 0.00 | 0.10 | 0.10 | 82 | 1008.6 |
| 20260903021516 | 54 | 191 | 15.0 | 23.0 | 0.00 | 0.10 | 0.10 | 78 | 1008.0 |
| 20260903020011 | 59 | 155 | 13.0 | 17.0 | 0.00 | 0.10 | 0.10 | 61 | 1008.1 |
| 20260903014507 | 56 | 198 | 4.0 | 7.0 | 0.00 | 0.10 | 0.10 | 78 | 1008.3 |
| 20260903013007 | 56 | 217 | 2.0 | 7.0 | 0.00 | 0.10 | 0.10 | 80 | 1008.3 |
| 20260903011507 | 56 | 98 | 7.0 | 13.0 | 0.01 | 0.10 | 0.10 | 83 | 1008.2 |
| 20260903010016 | 56 | 355 | 12.0 | 17.0 | 0.07 | 0.10 | 0.10 | 82 | 1009.4 |
| 20260903004504 | 57 | 183 | 2.0 | 4.0 | 0.10 | 0.10 | 0.10 | 78 | 1009.5 |
| 20260903003004 | 57 | 183 | 0.0 | 7.0 | 0.10 | 0.10 | 0.10 | 77 | 1009.4 |
| 20260903001510 | 57 | 149 | 13.0 | 31.0 | 0.09 | 0.09 | 0.09 | 74 | 1010.3 |
| 20260903000004 | 57 | 175 | 32.0 | 51.0 | 0.03 | 0.03 | 0.03 | 78 | 1010.1 |
| 20260902234623 | 58 | 170 | 39.0 | 51.0 | 0.00 | 0.00 | 0.00 | 77 | 1007.9 |
| 20260902233057 | 62 | 171 | 38.0 | 52.0 | 0.00 | 0.00 | 0.00 | 60 | 1008.0 |
| 20260902231608 | 75 | 163 | 7.0 | 12.0 | 0.00 | 0.00 | 0.00 | 36 | 1006.8 |
| 20260902230107 | 75 | 132 | 6.0 | 9.0 | 0.00 | 0.00 | 0.00 | 37 | 1006.3 |
| 20260902224552 | 76 | 194 | 6.0 | 10.0 | 0.00 | 0.00 | 0.00 | 35 | 1006.2 |
| 20260902223152 | 76 | 191 | 9.0 | 20.0 | 0.00 | 0.00 | 0.00 | 35 | 1006.4 |
| 20260902221550 | 78 | 178 | 11.0 | 22.0 | 0.00 | 0.00 | 0.00 | 31 | 1006.6 |
| 20260902220052 | 79 | 166 | 17.0 | 22.0 | 0.00 | 0.00 | 0.00 | 31 | 1006.8 |
| 20260902214548 | 78 | 159 | 18.0 | 23.0 | 0.00 | 0.00 | 0.00 | 30 | 1006.8 |
| 20260902213045 | 78 | 167 | 14.0 | 21.0 | 0.00 | 0.00 | 0.00 | 32 | 1006.8 |
| 20260902211543 | 77 | 188 | 15.0 | 21.0 | 0.00 | 0.00 | 0.00 | 33 | 1007.1 |
| 20260902210041 | 76 | 194 | 12.0 | 19.0 | 0.00 | 0.00 | 0.00 | 36 | 1007.3 |
| 20260902204537 | 76 | 203 | 10.0 | 17.0 | 0.00 | 0.00 | 0.00 | 36 | 1007.7 |
| 20260902203036 | 76 | 196 | 10.0 | 18.0 | 0.00 | 0.00 | 0.00 | 37 | 1007.7 |
| 20260902201538 | 75 | 197 | 9.0 | 14.0 | 0.00 | 0.00 | 0.00 | 39 | 1008.1 |
| 20260902200034 | 74 | 185 | 13.0 | 18.0 | 0.00 | 0.00 | 0.00 | 41 | 1008.2 |
| 20260902194532 | 74 | 168 | 11.0 | 17.0 | 0.00 | 0.00 | 0.00 | 41 | 1008.3 |
| 20260902193029 | 73 | 180 | 12.0 | 18.0 | 0.00 | 0.00 | 0.00 | 43 | 1008.3 |
| 20260902191532 | 74 | 200 | 12.0 | 18.0 | 0.00 | 0.00 | 0.00 | 40 | 1008.4 |
| 20260902190028 | 74 | 195 | 12.0 | 22.0 | 0.00 | 0.00 | 0.00 | 40 | 1008.5 |
| 20260902184526 | 74 | 194 | 13.0 | 17.0 | 0.00 | 0.00 | 0.00 | 40 | 1008.5 |
| 20260902183025 | 75 | 273 | 11.0 | 16.0 | 0.00 | 0.00 | 0.00 | 38 | 1008.8 |
| 20260902181522 | 74 | 194 | 12.0 | 19.0 | 0.00 | 0.00 | 0.00 | 41 | 1008.9 |
| 20260902180021 | 73 | 219 | 11.0 | 16.0 | 0.00 | 0.00 | 0.00 | 41 | 1008.9 |
| 20260902174521 | 73 | 212 | 9.0 | 15.0 | 0.00 | 0.00 | 0.00 | 39 | 1009.0 |
| 20260902173030 | 72 | 227 | 3.0 | 9.0 | 0.00 | 0.00 | 0.00 | 38 | 1009.0 |
| 20260902171519 | 73 | 230 | 6.0 | 9.0 | 0.00 | 0.00 | 0.00 | 36 | 1008.9 |
| 20260902170020 | 73 | 241 | 5.0 | 8.0 | 0.00 | 0.00 | 0.00 | 36 | 1008.8 |
| 20260902164515 | 72 | 196 | 6.0 | 12.0 | 0.00 | 0.00 | 0.00 | 39 | 1008.8 |
| 20260902163014 | 72 | 205 | 7.0 | 11.0 | 0.00 | 0.00 | 0.00 | 39 | 1008.9 |
| 20260902161531 | 71 | 207 | 6.0 | 10.0 | 0.00 | 0.00 | 0.00 | 39 | 1008.9 |
| 20260902160011 | 70 | 194 | 7.0 | 12.0 | 0.00 | 0.00 | 0.00 | 44 | 1009.0 |
| 20260902154511 | 70 | 191 | 9.0 | 12.0 | 0.00 | 0.00 | 0.00 | 43 | 1009.1 |
| 20260902153119 | 69 | 189 | 10.0 | 18.0 | 0.00 | 0.00 | 0.00 | 45 | 1009.3 |
| 20260902151510 | 66 | 184 | 8.0 | 12.0 | 0.00 | 0.00 | 0.00 | 48 | 1009.4 |
| 20260902150008 | 66 | 175 | 9.0 | 13.0 | 0.00 | 0.00 | 0.00 | 47 | 1009.7 |
| 20260902144510 | 66 | 183 | 9.0 | 12.0 | 0.00 | 0.00 | 0.00 | 47 | 1009.8 |
| 20260902143005 | 65 | 178 | 12.0 | 18.0 | 0.00 | 0.00 | 0.00 | 48 | 1009.9 |
| 20260902141505 | 63 | 213 | 6.0 | 8.0 | 0.00 | 0.00 | 0.00 | 54 | 1009.7 |
| 20260902140006 | 60 | 236 | 3.0 | 8.0 | 0.00 | 0.00 | 0.00 | 58 | 1009.6 |
| 20260902134505 | 61 | 220 | 5.0 | 6.0 | 0.00 | 0.00 | 0.00 | 54 | 1009.6 |
| 20260902133003 | 60 | 250 | 4.0 | 7.0 | 0.00 | 0.00 | 0.00 | 55 | 1009.3 |
| 20260902131501 | 61 | 232 | 3.0 | 7.0 | 0.00 | 0.00 | 0.00 | 52 | 1009.4 |
| 20260902130000 | 61 | 217 | 6.0 | 9.0 | 0.00 | 0.00 | 0.00 | 51 | 1009.5 |
| 20260902124608 | 60 | 240 | 4.0 | 8.0 | 0.00 | 0.00 | 0.00 | 53 | 1009.6 |
| 20260902123101 | 59 | 236 | 5.0 | 7.0 | 0.00 | 0.00 | 0.00 | 54 | 1009.7 |
| 20260902121611 | 59 | 239 | 5.0 | 10.0 | 0.00 | 0.00 | 0.00 | 55 | 1010.0 |
| 20260902120106 | 60 | 253 | 5.0 | 10.0 | 0.00 | 0.00 | 0.00 | 54 | 1010.0 |
| 20260902114616 | 59 | 227 | 5.0 | 9.0 | 0.00 | 0.00 | 0.00 | 54 | 1010.1 |
| 20260902113100 | 56 | 220 | 5.0 | 8.0 | 0.00 | 0.00 | 0.00 | 61 | 1010.2 |
| 20260902111600 | 57 | 218 | 2.0 | 5.0 | 0.00 | 0.00 | 0.00 | 57 | 1010.2 |
| 20260902110057 | 58 | 48 | 3.0 | 10.0 | 0.00 | 0.00 | 0.00 | 55 | 1009.9 |
| 20260902104548 | 58 | 37 | 3.0 | 4.0 | 0.00 | 0.00 | 0.00 | 55 | 1009.8 |
| 20260902103107 | 58 | 355 | 3.0 | 6.0 | 0.00 | 0.00 | 0.00 | 54 | 1010.0 |
| 20260902101546 | 59 | 51 | 3.0 | 5.0 | 0.00 | 0.00 | 0.00 | 53 | 1009.9 |
| 20260902100046 | 59 | 348 | 1.0 | 4.0 | 0.00 | 0.00 | 0.00 | 52 | 1010.1 |
| 20260902094545 | 60 | 348 | 3.0 | 5.0 | 0.00 | 0.00 | 0.00 | 52 | 1010.0 |
| 20260902093039 | 61 | 54 | 5.0 | 11.0 | 0.00 | 0.00 | 0.00 | 49 | 1010.2 |